Weather History for Jackson, MS

Change the Weather History Date:

Wednesday, May 15, 2013

  Actual Average Record
Temperature  
Mean Temperature 71 °F 72 °F  
Max Temperature 84 °F 83 °F 92 °F (1915)
Min Temperature 57 °F 62 °F 41 °F (1917)
Degree Days  
Heating Degree Days 0 0  
Month to date heating degree days 52 10  
Since 1 July heating degree days 2309 2389  
Cooling Degree Days 6 7  
Month to date cooling degree days 30 88  
Year to date cooling degree days 138 206  
Growing Degree Days 20 (Base 50)    
Moisture  
Dew Point 58 °F    
Average Humidity 67    
Maximum Humidity 93    
Minimum Humidity 40    
Precipitation  
Precipitation 0.00 in 0.14 in 3.12 in (1983)
Month to date precipitation 4.38 2.11  
Year to date precipitation 32.15 21.84  
Sea Level Pressure  
Sea Level Pressure 30.11 in    
Wind  
Wind Speed 6 mph (South)    
Max Wind Speed 15 mph    
Max Gust Speed 22 mph    
Visibility 10 miles    
Events      
T = Trace of Precipitation, MM = Missing Value Source: NWS Daily Summary

Daily Weather History Graph

Daily Weather History Graph

Search for Another Location

Airport:

Trip Planner

Search our weather history database for the weather conditions in past years. The results will help you decide how hot, cold, wet, or windy it might be!

Date:

Astronomy

May. 15, 2013 Rise Set
Actual Time 6:02 AM CDT 7:51 PM CDT
Civil Twilight 5:35 AM CDT 8:18 PM CDT
Nautical Twilight 5:02 AM CDT 8:51 PM CDT
Astronomical Twilight 4:28 AM CDT 9:25 PM CDT
Moon 10:34 AM CDT (5/15) No Moon Set
Length of Visible Light 14h 43m
Length of Day
13h 49m
Waxing Crescent, 27% of the Moon is Illuminated
May 15
Waxing Crescent
May 17
First Quarter
May 24
Full
May 31
Last Quarter
Jun 8
New

Hourly Weather History & Observations

Time (CDT) Temp. Heat Index Dew Point Humidity Pressure Visibility Wind Dir Wind Speed Gust Speed Precip Events Conditions
12:54 AM 62.1 °F - 55.9 °F 80% 30.14 in 10.0 mi South 8.1 mph - N/A   Clear
1:54 AM 62.1 °F - 55.9 °F 80% 30.14 in 10.0 mi South 5.8 mph - N/A   Clear
2:54 AM 61.0 °F - 55.9 °F 83% 30.15 in 10.0 mi South 6.9 mph - N/A   Clear
3:54 AM 60.1 °F - 55.0 °F 83% 30.15 in 10.0 mi South 4.6 mph - N/A   Clear
4:54 AM 59.0 °F - 54.0 °F 83% 30.15 in 10.0 mi South 5.8 mph - N/A   Clear
5:54 AM 57.9 °F - 53.1 °F 84% 30.16 in 10.0 mi SSW 4.6 mph - N/A   Clear
6:54 AM 57.9 °F - 55.0 °F 90% 30.18 in 10.0 mi South 3.5 mph - N/A   Clear
7:54 AM 64.0 °F - 55.9 °F 75% 30.20 in 10.0 mi SSW 4.6 mph - N/A   Clear
8:54 AM 69.1 °F - 59.0 °F 70% 30.19 in 10.0 mi SW 8.1 mph - N/A   Clear
9:54 AM 73.9 °F - 60.1 °F 62% 30.18 in 10.0 mi West 5.8 mph - N/A   Clear
10:54 AM 75.9 °F - 57.0 °F 52% 30.18 in 10.0 mi SSW 8.1 mph - N/A   Clear
11:54 AM 79.0 °F - 57.9 °F 48% 30.16 in 10.0 mi SW 8.1 mph - N/A   Clear
12:54 PM 81.0 °F 81.1 °F 57.9 °F 45% 30.14 in 10.0 mi South 6.9 mph 17.3 mph N/A   Clear
1:54 PM 81.0 °F 81.3 °F 59.0 °F 47% 30.12 in 10.0 mi South 8.1 mph - N/A   Clear
2:54 PM 82.0 °F 82.0 °F 57.9 °F 44% 30.09 in 10.0 mi SSW 11.5 mph - N/A   Partly Cloudy
3:54 PM 84.0 °F 83.5 °F 57.9 °F 41% 30.06 in 10.0 mi South 11.5 mph - N/A   Partly Cloudy
4:54 PM 80.1 °F 80.7 °F 59.0 °F 48% 30.05 in 10.0 mi SSW 6.9 mph - N/A   Partly Cloudy
5:54 PM 79.0 °F - 60.1 °F 52% 30.03 in 10.0 mi SSW 3.5 mph - N/A   Partly Cloudy
6:54 PM 75.9 °F - 62.1 °F 62% 30.01 in 10.0 mi SE 3.5 mph - N/A   Clear
7:54 PM 75.0 °F - 62.1 °F 64% 30.01 in 10.0 mi South 5.8 mph - N/A   Clear
8:54 PM 72.0 °F - 61.0 °F 68% 30.01 in 10.0 mi South 4.6 mph - N/A   Clear
9:54 PM 72.0 °F - 59.0 °F 64% 30.02 in 10.0 mi South 8.1 mph - N/A   Clear
10:54 PM 71.1 °F - 57.9 °F 63% 30.02 in 10.0 mi South 5.8 mph - N/A   Clear
11:54 PM 68.0 °F - 59.0 °F 73% 30.03 in 10.0 mi SSE 4.6 mph - N/A   Clear